Location: Trondheim
(63.4170°N, 10.4170°E)
Time: 15:33:21
(UTC+02:00)

Iridium 82 - Visible Passes

Search period start: 29 April 2017 00:00
Search period end: 09 May 2017 00:00
Orbit: 775 x 780 km, 86.4° (Epoch: 27 April)

Date Brightness Start Highest point End Pass type
(mag) Time Alt. Az. Time Alt. Az. Time Alt. Az.
29 Apr 6.0 00:27:47 10° N 00:32:57 55° ENE 00:37:17 14° SSE visible
29 Apr 6.3 02:08:45 10° NNW 02:13:37 40° W 02:17:45 14° SSW visible
29 Apr 7.7 03:51:12 10° NW 03:53:04 12° WNW 03:54:56 10° W visible
29 Apr 6.5 23:54:17 10° N 23:59:13 39° ENE 00:03:54 11° SE visible
30 Apr 5.8 01:35:05 10° N 01:40:14 58° W 01:44:22 16° SSW visible
30 Apr 7.5 03:16:46 10° NNW 03:20:00 17° WNW 03:23:14 10° WSW visible
30 Apr 6.9 23:20:50 10° N 23:25:22 28° ENE 23:29:51 10° ESE visible
01 May 5.6 01:01:28 10° N 01:06:44 84° W 01:10:59 16° S visible
01 May 7.1 02:42:47 10° NNW 02:46:51 23° WNW 02:50:54 10° WSW visible
01 May 7.3 22:47:28 10° N 22:51:24 21° NE 22:55:21 10° ESE visible
02 May 5.7 00:27:54 10° N 00:33:09 69° ENE 00:37:37 14° SSE visible
02 May 6.7 02:08:59 10° NNW 02:13:36 33° WNW 02:18:05 11° SW visible
02 May 6.2 23:54:22 10° N 23:59:28 48° ENE 00:04:15 11° SE visible
03 May 6.2 01:35:16 10° NNW 01:40:17 47° W 01:44:43 13° SSW visible
03 May 7.7 03:17:19 10° NNW 03:19:51 14° WNW 03:22:22 10° W visible
03 May 6.6 23:20:54 10° N 23:25:41 34° ENE 23:30:26 10° SE visible
04 May 5.7 01:01:38 10° N 01:06:50 68° W 01:11:21 14° S visible
04 May 7.4 02:43:08 10° NNW 02:46:45 19° WNW 02:50:21 10° WSW visible
05 May 5.6 00:28:02 10° N 00:33:19 85° E 00:37:59 13° S visible
05 May 7.0 02:09:15 10° NNW 02:13:34 27° WNW 02:17:52 10° SW visible
05 May 5.9 23:54:29 10° N 23:59:41 59° ENE 00:04:38 11° SSE visible
06 May 6.5 01:35:29 10° NNW 01:40:17 38° W 01:45:04 10° SSW visible
06 May 7.9 03:18:15 10° NW 03:19:39 11° WNW 03:21:03 10° WNW visible
06 May 6.3 23:20:59 10° N 23:25:58 42° ENE 23:30:55 10° SE visible
07 May 6.0 01:01:48 10° NNW 01:06:54 54° W 01:11:46 11° SSW visible
07 May 7.7 02:43:36 10° NNW 02:46:37 16° WNW 02:49:37 10° W visible
08 May 5.6 00:28:11 10° N 00:33:26 78° W 00:38:25 11° S visible
08 May 7.3 02:09:33 10° NNW 02:13:29 22° WNW 02:17:24 10° WSW visible
